Weather History for Cedar Rapids, IA

Change the Weather History Date:

Thursday, November 7, 2013

  Actual Average Record
Temperature  
Mean Temperature 36 °F 42 °F  
Max Temperature 47 °F 52 °F 79 °F (1915)
Min Temperature 24 °F 32 °F 1 °F (1991)
Degree Days  
Heating Degree Days 29 23  
Month to date heating degree days 147 152  
Since 1 July heating degree days 674 762  
Cooling Degree Days 0 0  
Month to date cooling degree days 0 0  
Year to date cooling degree days 884 748  
Moisture  
Dew Point 26 °F    
Average Humidity 73    
Maximum Humidity 92    
Minimum Humidity 53    
Precipitation  
Precipitation 0.00 in 0.07 in 0.32 in (1957)
Month to date precipitation 0.73 0.51  
Year to date precipitation 35.28 31.59  
Sea Level Pressure  
Sea Level Pressure 30.27 in    
Wind  
Wind Speed 9 mph (West)    
Max Wind Speed 20 mph    
Max Gust Speed 24 mph    
Visibility 10 miles    
Events      
T = Trace of Precipitation, MM = Missing Value Source: NWS Daily Summary

Daily Weather History Graph

Daily Weather History Graph

Search for Another Location

Airport:

Trip Planner

Search our weather history database for the weather conditions in past years. The results will help you decide how hot, cold, wet, or windy it might be!

Date:

Astronomy

Nov. 07, 2013 Rise Set
Actual Time 6:46 AM CST 4:53 PM CST
Civil Twilight 6:17 AM CST 5:22 PM CST
Nautical Twilight 5:44 AM CST 5:56 PM CST
Astronomical Twilight 5:11 AM CST 6:28 PM CST
Moon 10:56 AM CST (11/7) 9:05 PM CST (11/7)
Length of Visible Light 11h 05m
Length of Day
10h 06m
Waxing Crescent, 23% of the Moon is Illuminated
Nov 7
Waxing Crescent
Nov 9
First Quarter
Nov 17
Full
Nov 25
Last Quarter
Dec 2
New

Hourly Weather History & Observations

Time (CST) Temp. Windchill Dew Point Humidity Pressure Visibility Wind Dir Wind Speed Gust Speed Precip Events Conditions
12:52 AM 26.1 °F 20.5 °F 21.0 °F 81% 30.27 in 10.0 mi West 4.6 mph - N/A   Clear
1:52 AM 26.1 °F - 21.0 °F 81% 30.26 in 10.0 mi Calm Calm - N/A   Clear
2:52 AM 26.1 °F - 21.0 °F 81% 30.25 in 10.0 mi Calm Calm - N/A   Clear
3:52 AM 25.0 °F 20.7 °F 21.9 °F 88% 30.25 in 10.0 mi SW 3.5 mph - N/A   Clear
4:52 AM 26.1 °F 19.4 °F 21.9 °F 84% 30.25 in 10.0 mi SSW 5.8 mph - N/A   Mostly Cloudy
5:33 AM 26.6 °F 22.6 °F 24.8 °F 93% 30.22 in 10.0 mi SSW 3.5 mph - N/A   Mostly Cloudy
5:50 AM 26.6 °F 22.6 °F 24.8 °F 93% 30.21 in 9.0 mi South 3.5 mph - N/A   Scattered Clouds
5:52 AM 27.0 °F 23.0 °F 24.1 °F 89% 30.25 in 9.0 mi South 3.5 mph - N/A   Partly Cloudy
6:23 AM 28.4 °F 22.2 °F 24.8 °F 86% 30.21 in 9.0 mi SW 5.8 mph - N/A   Mostly Cloudy
6:52 AM 30.0 °F 24.1 °F 27.0 °F 88% 30.26 in 9.0 mi WSW 5.8 mph - N/A   Mostly Cloudy
7:52 AM 32.0 °F 22.5 °F 28.9 °F 88% 30.27 in 7.0 mi WNW 12.7 mph - N/A   Mostly Cloudy
7:56 AM 32.0 °F 23.0 °F 28.4 °F 87% 30.24 in 7.0 mi WNW 11.5 mph - N/A   Overcast
8:52 AM 33.1 °F 23.9 °F 28.9 °F 85% 30.28 in 10.0 mi WNW 12.7 mph - N/A   Overcast
9:06 AM 33.8 °F 24.8 °F 28.4 °F 81% 30.26 in 10.0 mi WNW 12.7 mph 21.9 mph N/A   Overcast
9:52 AM 35.1 °F 24.8 °F 28.0 °F 76% 30.30 in 10.0 mi NW 17.3 mph - N/A   Overcast
10:52 AM 39.0 °F 30.3 °F 30.0 °F 70% 30.30 in 10.0 mi NW 16.1 mph - N/A   Mostly Cloudy
11:52 AM 41.0 °F 33.5 °F 30.9 °F 67% 30.29 in 10.0 mi NW 13.8 mph 23.0 mph N/A   Scattered Clouds
12:52 PM 43.0 °F 36.8 °F 30.9 °F 62% 30.27 in 10.0 mi NW 11.5 mph - N/A   Partly Cloudy
1:52 PM 45.0 °F 39.3 °F 32.0 °F 60% 30.27 in 10.0 mi WNW 11.5 mph - N/A   Clear
2:52 PM 45.0 °F 38.9 °F 30.0 °F 56% 30.26 in 10.0 mi WNW 12.7 mph - N/A   Scattered Clouds
3:52 PM 44.1 °F 37.7 °F 28.0 °F 53% 30.26 in 10.0 mi West 12.7 mph - N/A   Clear
4:52 PM 39.9 °F 32.5 °F 28.0 °F 63% 30.28 in 10.0 mi WNW 12.7 mph - N/A   Clear
5:52 PM 34.0 °F 27.2 °F 26.1 °F 73% 30.29 in 10.0 mi WNW 8.1 mph - N/A   Clear
6:52 PM 30.9 °F 25.2 °F 26.1 °F 82% 30.30 in 10.0 mi WSW 5.8 mph - N/A   Clear
7:52 PM 30.9 °F 23.5 °F 25.0 °F 79% 30.29 in 10.0 mi WSW 8.1 mph - N/A   Clear
8:52 PM 32.0 °F 24.8 °F 25.0 °F 75% 30.29 in 10.0 mi West 8.1 mph - N/A   Clear
9:52 PM 30.9 °F 23.5 °F 24.1 °F 76% 30.30 in 10.0 mi WSW 8.1 mph - N/A   Clear
10:52 PM 28.9 °F 21.9 °F 23.0 °F 78% 30.29 in 10.0 mi WSW 6.9 mph - N/A   Clear
11:52 PM 28.9 °F 25.2 °F 23.0 °F 78% 30.29 in 10.0 mi North 3.5 mph - N/A   Clear